TimePST,TemperatureF,Dew PointF,Humidity,Sea Level PressureIn,VisibilityMPH,Wind Direction,Wind SpeedMPH,Gust SpeedMPH,PrecipitationIn,Events,Conditions,WindDirDegrees,DateUTC
12:56 AM,35.1,18.0,50,30.31,-9999.0,Calm,Calm,-,N/A,,Clear,0,2013-12-17 08:56:00
1:56 AM,36.0,19.0,50,30.31,-9999.0,Calm,Calm,-,N/A,,Clear,0,2013-12-17 09:56:00
2:56 AM,33.1,19.0,56,30.31,-9999.0,South,4.6,-,N/A,,Clear,170,2013-12-17 10:56:00
3:56 AM,34.0,19.0,54,30.31,-9999.0,SSW,6.9,-,N/A,,Clear,200,2013-12-17 11:56:00
4:56 AM,34.0,19.0,54,30.31,-9999.0,South,6.9,-,N/A,,Clear,180,2013-12-17 12:56:00
5:56 AM,30.0,17.1,59,30.32,10.0,Calm,Calm,-,N/A,,Mostly Cloudy,0,2013-12-17 13:56:00
6:56 AM,30.9,18.0,59,30.34,10.0,West,3.5,-,N/A,,Scattered Clouds,260,2013-12-17 14:56:00
7:56 AM,34.0,19.9,56,30.35,10.0,SE,3.5,-,N/A,,Overcast,140,2013-12-17 15:56:00
8:56 AM,42.1,21.9,45,30.35,10.0,Calm,Calm,-,N/A,,Overcast,0,2013-12-17 16:56:00
9:56 AM,45.0,19.9,37,30.34,10.0,Calm,Calm,-,N/A,,Overcast,0,2013-12-17 17:56:00
10:56 AM,52.0,21.0,30,30.31,10.0,Calm,Calm,-,N/A,,Overcast,0,2013-12-17 18:56:00
11:56 AM,57.0,21.0,25,30.27,10.0,Calm,Calm,-,N/A,,Overcast,0,2013-12-17 19:56:00
12:56 PM,61.0,19.9,21,30.23,10.0,Calm,Calm,-,N/A,,Overcast,0,2013-12-17 20:56:00
1:56 PM,64.0,21.0,19,30.20,10.0,Variable,3.5,-,N/A,,Overcast,0,2013-12-17 21:56:00
2:56 PM,64.9,23.0,20,30.19,10.0,NNE,3.5,-,N/A,,Overcast,20,2013-12-17 22:56:00
3:56 PM,62.1,21.9,21,30.18,10.0,North,3.5,-,N/A,,Overcast,10,2013-12-17 23:56:00
4:56 PM,57.0,21.0,25,30.18,10.0,Calm,Calm,-,N/A,,Overcast,0,2013-12-18 00:56:00
5:56 PM,48.0,21.0,34,30.20,10.0,SSE,4.6,-,N/A,,Overcast,150,2013-12-18 01:56:00
6:56 PM,46.0,21.9,39,30.20,10.0,SSW,10.4,-,N/A,,Mostly Cloudy,210,2013-12-18 02:56:00
7:56 PM,43.0,21.0,42,30.19,10.0,South,3.5,-,N/A,,Mostly Cloudy,170,2013-12-18 03:56:00
8:56 PM,43.0,19.9,40,30.19,10.0,Calm,Calm,-,N/A,,Mostly Cloudy,0,2013-12-18 04:56:00
9:56 PM,39.9,19.0,43,30.18,10.0,SSW,6.9,-,N/A,,Mostly Cloudy,210,2013-12-18 05:56:00
10:56 PM,37.0,18.0,46,30.17,10.0,Calm,Calm,-,N/A,,Mostly Cloudy,0,2013-12-18 06:56:00
11:56 PM,37.9,18.0,45,30.15,10.0,SW,3.5,-,N/A,,Clear,220,2013-12-18 07:56:00